Regional Weather Roundup
Issued by NWS

Home | Current Version | Previous Version | Graphics & Text | Print | Product List | Glossary On
Versions: 1 2 3 4 5 6 7 8 9 10 11 12 13 14 15 16 17 18 19 20 21 22 23 24 25 26 27 28 29 30 31 32 33 34 35 36 37 38 39 40 41 42 43 44 45 46 47 48 49 50
564
ASUS43 KBIS 140710
RWRND

NORTH DAKOTA REGIONAL WEATHER ROUNDUP
NATIONAL WEATHER SERVICE BISMARCK ND
100 AM CST SUN FEB 14 2016

NOTE: "FAIR" INDICATES FEW OR NO CLOUDS BELOW 12,000 FEET WITH NO
SIGNIFICANT WEATHER AND/OR OBSTRUCTIONS TO VISIBILITY.


NDZ001>003-009>011-017-140800-
NORTHWEST NORTH DAKOTA

CITY           SKY/WX    TMP DP  RH WIND       PRES   REMARKS
WILLISTON      CLOUDY    29  24  82 NW9       29.80F
MINOT          LGT SNOW  19  13  77 SE5       29.75F WCI  12
MINOT AFB      LGT SNOW  16  15  98 CALM      29.75F FOG
$$

NDZ018>021-031>035-040>046-140800-
SOUTHWEST NORTH DAKOTA

CITY           SKY/WX    TMP DP  RH WIND       PRES   REMARKS
BISMARCK       CLOUDY    20  15  81 SE8       29.81F HAZE    WCI  10
DICKINSON      CLOUDY    31  27  85 NW20      29.76S WCI  19
GARRISON         N/A     19  17  92 S3        29.76S
HETTINGER ARPT CLOUDY    35  32  88 NW18G24   29.80R
$$

NDZ004>008-012>016-024-026-027-054-140800-
NORTHEAST NORTH DAKOTA

CITY           SKY/WX    TMP DP  RH WIND       PRES   REMARKS
GRAND FORKS    LGT SNOW  13   7  77 S21G29    30.02F WCI  -5
GRND FRKS AFB  LGT SNOW  11   6  81 S18       30.00S WCI  -7
DEVILS LAKE    LGT SNOW  12   8  84 S20       29.87F FOG     WCI  -6
$$

NDZ022-023-025-028>030-036>039-047>053-140800-
SOUTHEAST NORTH DAKOTA

CITY           SKY/WX    TMP DP  RH WIND       PRES   REMARKS
FARGO          CLOUDY    13   4  67 S25G35    30.04F WCI  -7
JAMESTOWN      LGT SNOW  13   9  84 S20       29.87F FOG     WCI  -5
$$





USA.gov is the U.S. government's official web portal to all federal, state and local government web resources and services.